Wetterdaten: Woche 20.02.06 - 26.02.06 (KW8)
Datum Zeit Temperatur Luftfeuchte Luftdruck Niederschlag Windrichtung Wind
20.02.2006 00:00 0,8 C 82 % 1000 hPa 0,0 l/m O-SO 1,9 km/h (1 Bft)
20.02.2006 01:00 0,3 C 85 % 1000 hPa 0,0 l/m N 0,0 km/h (0 Bft)
20.02.2006 02:00 -0,1 C 87 % 1000 hPa 0,0 l/m N 0,0 km/h (0 Bft)
20.02.2006 03:00 -0,3 C 89 % 1000 hPa 0,0 l/m N 0,0 km/h (0 Bft)
20.02.2006 04:00 -0,0 C 90 % 1000 hPa 0,0 l/m NW 0,5 km/h (0 Bft)
20.02.2006 05:00 0,1 C 91 % 1000 hPa 0,0 l/m N 0,0 km/h (0 Bft)
20.02.2006 06:00 0,1 C 91 % 1000 hPa 0,0 l/m W 4,8 km/h (1 Bft)
20.02.2006 07:00 -0,4 C 92 % 1001 hPa 0,0 l/m N-NO 0,4 km/h (0 Bft)
20.02.2006 08:00 -0,3 C 92 % 1002 hPa 0,0 l/m N 0,0 km/h (0 Bft)
20.02.2006 09:00 1,2 C 94 % 1003 hPa 0,0 l/m N 0,0 km/h (0 Bft)
20.02.2006 10:00 3,9 C 85 % 1004 hPa 0,0 l/m S-SW 6,8 km/h (2 Bft)
20.02.2006 11:00 4,5 C 78 % 1005 hPa 0,0 l/m S-SW 7,8 km/h (2 Bft)
20.02.2006 12:00 3,5 C 86 % 1005 hPa 0,0 l/m W-SW 4,5 km/h (1 Bft)
20.02.2006 13:00 4,2 C 89 % 1005 hPa 0,0 l/m SO 3,0 km/h (1 Bft)
20.02.2006 14:00 4,8 C 85 % 1005 hPa 0,0 l/m S-SO 9,9 km/h (2 Bft)
20.02.2006 15:00 4,8 C 86 % 1005 hPa 0,0 l/m O-SO 11,8 km/h (2 Bft)
20.02.2006 16:00 4,6 C 82 % 1005 hPa 0,0 l/m O-SO 9,8 km/h (2 Bft)
20.02.2006 17:00 4,0 C 83 % 1005 hPa 0,0 l/m SO 4,7 km/h (1 Bft)
20.02.2006 18:00 2,9 C 87 % 1006 hPa 0,0 l/m SO 1,8 km/h (1 Bft)
20.02.2006 19:00 2,2 C 89 % 1006 hPa 0,0 l/m N 0,0 km/h (0 Bft)
20.02.2006 20:00 1,6 C 90 % 1006 hPa 0,0 l/m N 0,0 km/h (0 Bft)
20.02.2006 21:00 0,9 C 92 % 1007 hPa 0,0 l/m N 0,0 km/h (0 Bft)
20.02.2006 22:00 0,4 C 93 % 1007 hPa 0,0 l/m N 0,0 km/h (0 Bft)
20.02.2006 23:00 0,4 C 96 % 1008 hPa 0,0 l/m N 0,0 km/h (0 Bft)
21.02.2006 00:00 0,6 C 97 % 1008 hPa 0,0 l/m W 0,4 km/h (0 Bft)
21.02.2006 01:00 0,1 C 98 % 1008 hPa 0,0 l/m N 0,0 km/h (0 Bft)
21.02.2006 02:00 -0,9 C 97 % 1008 hPa 0,0 l/m N 0,0 km/h (0 Bft)
21.02.2006 03:00 -1,4 C 98 % 1008 hPa 0,0 l/m N 0,0 km/h (0 Bft)
21.02.2006 04:00 -1,8 C 98 % 1008 hPa 0,0 l/m N 0,0 km/h (0 Bft)
21.02.2006 05:00 -2,2 C 99 % 1008 hPa 0,0 l/m N 0,0 km/h (0 Bft)
21.02.2006 06:00 -2,7 C 99 % 1008 hPa 0,0 l/m N 0,0 km/h (0 Bft)
21.02.2006 07:00 -3,0 C 99 % 1009 hPa 0,0 l/m N 0,0 km/h (0 Bft)
21.02.2006 08:00 -2,8 C 99 % 1009 hPa 0,0 l/m N 0,0 km/h (0 Bft)
21.02.2006 09:00 -1,3 C 100 % 1010 hPa 0,0 l/m N 0,0 km/h (0 Bft)
21.02.2006 10:00 1,2 C 100 % 1010 hPa 0,0 l/m W 1,8 km/h (1 Bft)
21.02.2006 11:00 3,5 C 90 % 1010 hPa 0,0 l/m W-NW 8,8 km/h (2 Bft)
21.02.2006 12:00 5,3 C 78 % 1010 hPa 0,0 l/m W 9,4 km/h (2 Bft)
21.02.2006 13:00 7,9 C 60 % 1010 hPa 0,0 l/m NW 11,8 km/h (2 Bft)
21.02.2006 14:00 7,3 C 61 % 1010 hPa 0,0 l/m NW 12,6 km/h (3 Bft)
21.02.2006 15:00 7,1 C 64 % 1010 hPa 0,0 l/m N-NW 11,5 km/h (2 Bft)
21.02.2006 16:00 6,9 C 68 % 1010 hPa 0,0 l/m NW 11,7 km/h (2 Bft)
21.02.2006 17:00 6,2 C 67 % 1011 hPa 0,0 l/m N 10,7 km/h (2 Bft)
21.02.2006 18:00 4,8 C 70 % 1011 hPa 0,0 l/m N 8,0 km/h (2 Bft)
21.02.2006 19:00 4,2 C 74 % 1012 hPa 0,0 l/m N 6,9 km/h (2 Bft)
21.02.2006 20:00 3,8 C 77 % 1012 hPa 0,0 l/m N-NW 10,3 km/h (2 Bft)
21.02.2006 21:00 3,7 C 82 % 1012 hPa 0,0 l/m N-NW 9,7 km/h (2 Bft)
21.02.2006 22:00 3,6 C 82 % 1013 hPa 0,0 l/m N-NW 8,8 km/h (2 Bft)
21.02.2006 23:00 2,8 C 86 % 1013 hPa 0,0 l/m NW 6,0 km/h (2 Bft)
22.02.2006 00:00 1,6 C 90 % 1013 hPa 0,0 l/m W-NW 9,0 km/h (2 Bft)
22.02.2006 01:00 1,0 C 93 % 1014 hPa 0,0 l/m N-NW 10,5 km/h (2 Bft)
22.02.2006 02:00 0,7 C 95 % 1014 hPa 0,0 l/m N-NW 11,5 km/h (2 Bft)
22.02.2006 03:00 0,8 C 93 % 1014 hPa 0,0 l/m NW 11,7 km/h (2 Bft)
22.02.2006 04:00 0,8 C 92 % 1014 hPa 0,0 l/m W-NW 12,4 km/h (3 Bft)
22.02.2006 05:00 0,9 C 93 % 1015 hPa 0,0 l/m N-NW 13,6 km/h (3 Bft)
22.02.2006 06:00 1,0 C 92 % 1015 hPa 0,0 l/m N 14,9 km/h (3 Bft)
22.02.2006 07:00 1,0 C 93 % 1015 hPa 0,0 l/m N 16,5 km/h (3 Bft)
22.02.2006 08:00 1,0 C 93 % 1016 hPa 0,0 l/m N 14,0 km/h (3 Bft)
22.02.2006 09:00 1,3 C 91 % 1016 hPa 0,0 l/m N-NW 14,5 km/h (3 Bft)
22.02.2006 10:00 1,3 C 89 % 1017 hPa 0,0 l/m N 14,1 km/h (3 Bft)
22.02.2006 11:00 1,3 C 89 % 1017 hPa 0,0 l/m N 14,1 km/h (3 Bft)
22.02.2006 12:00 1,4 C 89 % 1017 hPa 0,0 l/m N-NW 13,8 km/h (3 Bft)
22.02.2006 13:00 1,5 C 88 % 1017 hPa 0,0 l/m N 12,7 km/h (3 Bft)
22.02.2006 14:00 1,9 C 85 % 1017 hPa 0,0 l/m N-NW 15,1 km/h (3 Bft)
22.02.2006 15:00 1,9 C 82 % 1017 hPa 0,0 l/m N-NW 16,9 km/h (3 Bft)
22.02.2006 16:00 1,8 C 82 % 1017 hPa 0,0 l/m N-NW 15,3 km/h (3 Bft)
22.02.2006 17:00 1,7 C 82 % 1017 hPa 0,0 l/m N 13,5 km/h (3 Bft)
22.02.2006 18:00 1,7 C 81 % 1018 hPa 0,0 l/m N 11,8 km/h (2 Bft)
22.02.2006 19:00 1,5 C 83 % 1018 hPa 0,0 l/m N 11,6 km/h (2 Bft)
22.02.2006 20:00 1,4 C 85 % 1018 hPa 0,0 l/m N 11,6 km/h (2 Bft)
22.02.2006 21:00 1,1 C 87 % 1018 hPa 0,0 l/m NW 12,2 km/h (3 Bft)
22.02.2006 22:00 0,9 C 88 % 1018 hPa 0,0 l/m N 12,2 km/h (2 Bft)
22.02.2006 23:00 0,7 C 88 % 1018 hPa 0,0 l/m N 14,4 km/h (3 Bft)
23.02.2006 00:00 0,4 C 90 % 1018 hPa 0,0 l/m N 13,3 km/h (3 Bft)
23.02.2006 01:00 0,3 C 90 % 1018 hPa 0,0 l/m N-NW 9,5 km/h (2 Bft)
23.02.2006 02:00 0,2 C 90 % 1018 hPa 0,0 l/m NW 8,7 km/h (2 Bft)
23.02.2006 03:00 0,1 C 90 % 1018 hPa 0,0 l/m N-NW 9,3 km/h (2 Bft)
23.02.2006 04:00 -0,1 C 90 % 1017 hPa 0,0 l/m N-NW 9,0 km/h (2 Bft)
23.02.2006 05:00 -0,2 C 91 % 1017 hPa 0,0 l/m N-NW 9,6 km/h (2 Bft)
23.02.2006 06:00 -0,4 C 91 % 1017 hPa 0,0 l/m N 9,5 km/h (2 Bft)
23.02.2006 07:00 -0,4 C 93 % 1016 hPa 0,0 l/m N 10,7 km/h (2 Bft)
23.02.2006 08:00 -0,5 C 94 % 1017 hPa 0,0 l/m N-NW 10,7 km/h (2 Bft)
23.02.2006 09:00 -0,4 C 93 % 1017 hPa 0,0 l/m N 11,2 km/h (2 Bft)
23.02.2006 10:00 -0,2 C 93 % 1016 hPa 0,0 l/m N 12,0 km/h (2 Bft)
23.02.2006 11:00 -0,1 C 92 % 1016 hPa 0,0 l/m N 11,6 km/h (2 Bft)
23.02.2006 12:00 0,1 C 93 % 1016 hPa 0,0 l/m N 8,9 km/h (2 Bft)
23.02.2006 13:00 0,3 C 90 % 1016 hPa 0,0 l/m N 10,1 km/h (2 Bft)
23.02.2006 14:00 0,2 C 91 % 1015 hPa 0,0 l/m N-NW 10,8 km/h (2 Bft)
23.02.2006 15:00 0,1 C 92 % 1015 hPa 0,0 l/m NW 12,6 km/h (3 Bft)
23.02.2006 16:00 -0,2 C 94 % 1014 hPa 0,0 l/m N-NW 11,1 km/h (2 Bft)
23.02.2006 17:00 -0,4 C 96 % 1014 hPa 0,0 l/m NW 11,7 km/h (2 Bft)
23.02.2006 18:00 -0,5 C 97 % 1014 hPa 0,0 l/m NW 12,7 km/h (3 Bft)
23.02.2006 19:00 -0,5 C 96 % 1014 hPa 0,0 l/m NW 13,2 km/h (3 Bft)
23.02.2006 20:00 -0,3 C 94 % 1014 hPa 0,0 l/m N-NW 10,5 km/h (2 Bft)
23.02.2006 21:00 -0,3 C 93 % 1014 hPa 0,0 l/m NW 11,5 km/h (2 Bft)
23.02.2006 22:00 -0,1 C 91 % 1013 hPa 0,0 l/m N-NW 11,9 km/h (2 Bft)
23.02.2006 23:00 0,0 C 87 % 1013 hPa 0,0 l/m N 11,0 km/h (2 Bft)
24.02.2006 00:00 -0,2 C 81 % 1013 hPa 0,0 l/m N 14,3 km/h (3 Bft)
24.02.2006 01:00 -0,4 C 79 % 1012 hPa 0,0 l/m N 14,6 km/h (3 Bft)
24.02.2006 02:00 -0,6 C 77 % 1012 hPa 0,0 l/m N 14,4 km/h (3 Bft)
24.02.2006 03:00 -0,9 C 77 % 1012 hPa 0,0 l/m N 16,6 km/h (3 Bft)
24.02.2006 04:00 -1,0 C 77 % 1012 hPa 0,0 l/m N 17,3 km/h (3 Bft)
24.02.2006 05:00 -1,0 C 78 % 1012 hPa 0,0 l/m N 17,7 km/h (3 Bft)
24.02.2006 06:00 -1,0 C 78 % 1012 hPa 0,0 l/m N 16,8 km/h (3 Bft)
24.02.2006 07:00 -1,2 C 78 % 1011 hPa 0,0 l/m N-NW 15,6 km/h (3 Bft)
24.02.2006 08:00 -1,4 C 78 % 1011 hPa 0,0 l/m N-NO 17,1 km/h (3 Bft)
24.02.2006 09:00 -1,6 C 76 % 1011 hPa 0,0 l/m N 18,0 km/h (3 Bft)
24.02.2006 10:00 -1,4 C 76 % 1011 hPa 0,0 l/m N-NO 19,0 km/h (3 Bft)
24.02.2006 11:00 -1,2 C 77 % 1011 hPa 0,0 l/m N 17,0 km/h (3 Bft)
24.02.2006 12:00 -0,6 C 78 % 1011 hPa 0,0 l/m N 16,6 km/h (3 Bft)
24.02.2006 13:00 -0,2 C 78 % 1010 hPa 0,0 l/m N 17,0 km/h (3 Bft)
24.02.2006 14:00 0,0 C 78 % 1009 hPa 0,0 l/m N-NW 15,9 km/h (3 Bft)
24.02.2006 15:00 0,4 C 76 % 1009 hPa 0,0 l/m N-NW 14,0 km/h (3 Bft)
24.02.2006 16:00 0,7 C 76 % 1009 hPa 0,0 l/m N 15,7 km/h (3 Bft)
24.02.2006 17:00 1,5 C 67 % 1008 hPa 0,0 l/m N 19,5 km/h (3 Bft)
24.02.2006 18:00 1,6 C 63 % 1008 hPa 0,0 l/m N 20,5 km/h (4 Bft)
24.02.2006 19:00 1,4 C 63 % 1008 hPa 0,0 l/m O-NO 19,0 km/h (3 Bft)
24.02.2006 20:00 1,4 C 61 % 1008 hPa 0,0 l/m NO 21,1 km/h (4 Bft)
24.02.2006 21:00 1,4 C 60 % 1008 hPa 0,0 l/m O-NO 23,7 km/h (4 Bft)
24.02.2006 22:00 1,1 C 60 % 1008 hPa 0,0 l/m NO 21,8 km/h (4 Bft)
24.02.2006 23:00 0,9 C 60 % 1007 hPa 0,0 l/m NO 21,1 km/h (4 Bft)
25.02.2006 00:00 0,5 C 61 % 1007 hPa 0,0 l/m NO 18,0 km/h (3 Bft)
25.02.2006 01:00 0,2 C 61 % 1007 hPa 0,0 l/m NO 18,3 km/h (3 Bft)
25.02.2006 02:00 -0,2 C 61 % 1007 hPa 0,0 l/m NO 19,1 km/h (3 Bft)
25.02.2006 03:00 -0,5 C 63 % 1007 hPa 0,0 l/m NO 16,3 km/h (3 Bft)
25.02.2006 04:00 -0,7 C 64 % 1006 hPa 0,0 l/m NO 17,5 km/h (3 Bft)
25.02.2006 05:00 -1,1 C 69 % 1006 hPa 0,0 l/m N-NO 12,1 km/h (2 Bft)
25.02.2006 06:00 -1,3 C 69 % 1007 hPa 0,0 l/m NO 13,1 km/h (3 Bft)
25.02.2006 07:00 -1,4 C 70 % 1007 hPa 0,0 l/m N-NO 11,5 km/h (2 Bft)
25.02.2006 08:00 -1,5 C 71 % 1007 hPa 0,0 l/m N-NO 12,7 km/h (3 Bft)
25.02.2006 09:00 -1,5 C 72 % 1008 hPa 0,0 l/m N-NO 11,5 km/h (2 Bft)
25.02.2006 10:00 -1,4 C 71 % 1008 hPa 0,0 l/m N 9,7 km/h (2 Bft)
25.02.2006 11:00 -1,3 C 71 % 1008 hPa 0,0 l/m N 10,6 km/h (2 Bft)
25.02.2006 12:00 -1,1 C 70 % 1009 hPa 0,0 l/m N 10,2 km/h (2 Bft)
25.02.2006 13:00 -1,0 C 69 % 1009 hPa 0,0 l/m N-NO 10,1 km/h (2 Bft)
25.02.2006 14:00 -0,6 C 71 % 1009 hPa 0,0 l/m N-NO 7,7 km/h (2 Bft)
25.02.2006 15:00 -0,7 C 78 % 1009 hPa 0,0 l/m N-NO 7,8 km/h (2 Bft)
25.02.2006 16:00 -0,7 C 77 % 1009 hPa 0,0 l/m N-NO 4,3 km/h (1 Bft)
25.02.2006 17:00 -1,3 C 82 % 1009 hPa 0,0 l/m N-NO 1,1 km/h (1 Bft)
25.02.2006 18:00 -1,8 C 85 % 1009 hPa 0,0 l/m N 0,0 km/h (0 Bft)
25.02.2006 19:00 -1,9 C 87 % 1009 hPa 0,0 l/m N 0,0 km/h (0 Bft)
25.02.2006 20:00 -2,0 C 89 % 1009 hPa 0,0 l/m N 0,0 km/h (0 Bft)
25.02.2006 21:00 -2,2 C 91 % 1010 hPa 0,0 l/m N 0,0 km/h (0 Bft)
25.02.2006 22:00 -2,4 C 92 % 1010 hPa 0,0 l/m N 0,0 km/h (0 Bft)
25.02.2006 23:00 -2,6 C 92 % 1010 hPa 0,0 l/m N 0,0 km/h (0 Bft)
26.02.2006 00:00 -2,5 C 92 % 1010 hPa 0,0 l/m N 0,0 km/h (0 Bft)
26.02.2006 01:00 -2,3 C 93 % 1010 hPa 0,0 l/m N 0,0 km/h (0 Bft)
26.02.2006 02:00 -2,2 C 94 % 1010 hPa 0,0 l/m N 0,0 km/h (0 Bft)
26.02.2006 03:00 -2,1 C 94 % 1010 hPa 0,0 l/m N 0,0 km/h (0 Bft)
26.02.2006 04:00 -2,1 C 95 % 1010 hPa 0,0 l/m N 0,9 km/h (0 Bft)
26.02.2006 05:00 -2,2 C 96 % 1010 hPa 0,0 l/m N 0,0 km/h (0 Bft)
26.02.2006 06:00 -2,3 C 96 % 1010 hPa 0,0 l/m N 1,9 km/h (1 Bft)
26.02.2006 07:00 -2,5 C 95 % 1011 hPa 0,0 l/m N 7,3 km/h (2 Bft)
26.02.2006 08:00 -2,5 C 92 % 1011 hPa 0,0 l/m N-NO 5,8 km/h (2 Bft)
26.02.2006 09:00 -2,0 C 84 % 1012 hPa 0,0 l/m N-NO 9,1 km/h (2 Bft)
26.02.2006 10:00 -1,0 C 77 % 1012 hPa 0,0 l/m N-NO 11,7 km/h (2 Bft)
26.02.2006 11:00 -1,2 C 76 % 1012 hPa 0,0 l/m N-NO 11,9 km/h (2 Bft)
26.02.2006 12:00 -1,0 C 72 % 1012 hPa 0,0 l/m N-NO 12,7 km/h (3 Bft)
26.02.2006 13:00 -0,6 C 69 % 1012 hPa 0,0 l/m N-NO 12,6 km/h (3 Bft)
26.02.2006 14:00 -1,2 C 71 % 1012 hPa 0,0 l/m N-NO 14,2 km/h (3 Bft)
26.02.2006 15:00 -1,8 C 76 % 1012 hPa 0,0 l/m N-NO 12,0 km/h (2 Bft)
26.02.2006 16:00 -2,1 C 77 % 1012 hPa 0,0 l/m N-NO 15,0 km/h (3 Bft)
26.02.2006 17:00 -2,9 C 79 % 1012 hPa 0,0 l/m N 13,0 km/h (3 Bft)
26.02.2006 18:00 -3,4 C 82 % 1013 hPa 0,0 l/m NO 12,3 km/h (3 Bft)
26.02.2006 19:00 -3,8 C 81 % 1013 hPa 0,0 l/m N-NO 11,3 km/h (2 Bft)
26.02.2006 20:00 -4,1 C 81 % 1014 hPa 0,0 l/m N 13,2 km/h (3 Bft)
26.02.2006 21:00 -4,5 C 79 % 1014 hPa 0,0 l/m NO 14,0 km/h (3 Bft)
26.02.2006 22:00 -4,8 C 76 % 1015 hPa 0,0 l/m N 11,3 km/h (2 Bft)
26.02.2006 23:00 -5,0 C 74 % 1015 hPa 0,0 l/m N 9,4 km/h (2 Bft)
Min-Datum _ 26.02.06 21.02.06 20.02.06 - - 20.02.06
_ Min-Zeit 23:42 13:52 00:00 - - 00:00
Minimum _ -5,1 C 54 % 999 hPa - - 0,0 km/h (0 Bft)
Max-Datum _ 21.02.06 21.02.06 22.02.06 20.02.06 - 24.02.06
_ Max-Zeit 13:41 08:04 18:03 00:00 - 21:18
Maximum _ 8,4 C 100 % 1018 hPa 0,0 l/m - 42,3 km/h
O-NO (6 Bft)
Durchschnitt _ 0,2 C 84 % 1011 hPa #0,0 l/m N 9,6 km/h (2 Bft)

Durchschnitt Minimum Temp.-0,0 C
Durchschnitt Maximum Temp.0,4 C